Location: Newark
(35.0033°N, 81.0878°W)
Time: 00:49:40
(UTC+00:00)

XW-2C - Visible Passes

Search period start: 23 October 2019 00:00
Search period end: 02 November 2019 00:00
Orbit: 507 x 529 km, 97.5° (Epoch: 22 October)

Date Brightness Start Highest point End Pass type
(mag) Time Alt. Az. Time Alt. Az. Time Alt. Az.
23 Oct ? 10:18:56 10° ENE 10:20:24 12° E 10:21:52 10° ESE visible
24 Oct ? 23:51:19 10° WSW 23:52:05 10° W 23:52:51 10° W visible
25 Oct ? 23:35:39 10° SW 23:38:02 16° W 23:40:25 10° NW visible
26 Oct ? 11:09:09 10° NNE 11:12:51 60° E 11:16:32 10° S visible
26 Oct ? 23:20:56 10° SSW 23:24:01 24° W 23:27:06 10° NW visible
27 Oct ? 10:55:23 10° NNE 10:58:53 37° E 11:02:22 10° SSE visible
27 Oct ? 23:06:33 10° SSW 23:10:01 36° W 23:13:31 10° NNW visible
28 Oct ? 10:41:46 10° NE 10:44:53 25° E 10:47:58 10° SSE visible
29 Oct ? 10:28:26 10° NE 10:30:51 16° E 10:33:17 10° SE visible
30 Oct ? 10:15:52 10° ENE 10:16:49 11° E 10:17:45 10° ESE visible
31 Oct ? 23:47:08 10° WSW 23:48:29 12° W 23:49:50 10° WNW visible
01 Nov ? 23:31:52 10° SW 23:34:26 18° W 23:37:01 10° NW visible
